Terminal Aerodrome Forecast
Issued by NWS Lake Charles, LA

Home | Current Version | Previous Version | Text Only | Print | Product List | Glossary On
Versions: 1 2 3 4 5 6 7 8 9 10 11 12 13 14 15 16 17
000
FTUS44 KLCH 031700
TAFAEX
TAF
KAEX 031725Z 0318/0418 18010KT 6SM BR OVC004
     FM032000 19010G15KT P6SM OVC004
     FM032200 19010G16KT P6SM OVC020
     FM040200 17006KT 3/4SM BR OVC009
     FM040400 16005KT 1/4SM FG OVC003=

USA.gov is the U.S. government's official web portal to all federal, state and local government web resources and services.